Regional Weather Roundup
Issued by NWS

Home | Current Version | Previous Version | Graphics & Text | Print | Product List | Glossary On
Versions: 1 2 3 4 5 6 7 8 9 10 11 12 13 14 15 16 17 18 19 20 21 22 23 24 25 26 27 28 29 30 31 32 33 34 35 36 37 38 39 40 41 42 43 44 45 46 47 48 49 50
000
ASUS43 KMKX 240300
RWRWI

WISCONSIN REGIONAL WEATHER ROUNDUP
NATIONAL WEATHER SERVICE MILWAUKEE/SULLIVAN WI
1000 PM CDT THU OCT 23 2014

NOTE: "FAIR" INDICATES FEW OR NO CLOUDS BELOW 12,000 FEET WITH NO
SIGNIFICANT WEATHER AND/OR OBSTRUCTIONS TO VISIBILITY.

WIZ001-002-006>008-014>016-023>028-240400-
NORTHWEST WISCONSIN

CITY           SKY/WX    TMP DP  RH WIND       PRES   REMARKS
SUPERIOR ARPT  FOG       41  41 100 CALM      29.95S VSB 1/4
ASHLAND        FOG       42  41  96 S3        29.98S VSB 1/4
HAYWARD        MOCLDY    44  43  96 S5        29.99R FOG
SIREN          CLEAR     49  47  95 S6        29.97S
CUMBERLAND     CLOUDY    46  46 100 S5        29.99S FOG
RICE LAKE      CLOUDY    50  49  95 S7        30.01S FOG
CHETEK         CLOUDY    50  49  96 SE6       30.00F
LADYSMITH      CLOUDY    50  49  97 S5        30.02F FOG
EAU CLAIRE     NOT AVBL
MENOMONIE      NOT AVBL
NEW RICHMOND   CLEAR     48  47  99 SE5       29.99S FOG
OSCEOLA        PTCLDY    49  49 100 CALM      30.01R
$$

WIZ003>005-009-010-017-018-240400-
NORTH CENTRAL WISCONSIN

CITY           SKY/WX    TMP DP  RH WIND       PRES   REMARKS
MANITOWISH WTR CLOUDY    45  45 100 S6        29.99F FOG
ARBOR VITAE    CLOUDY    46  45  97 SW5       30.00F FOG
WOODRUFF       CLOUDY    46  45  97 SW5       30.00F FOG
RHINELANDER    FOG       44  44 100 SW5       30.01F VSB 1
EAGLE RIVER    CLOUDY    44  44 100 W7        30.00S FOG
LAND O LAKES   FOG       45  45 100 CALM      30.00S VSB 1
PHILLIPS       CLOUDY    46  46  99 SW6       30.00F FOG
TOMAHAWK       FOG       45  44  97 CALM      30.02S VSB 1
MEDFORD        FOG       46  46 100 S3        30.02S VSB 1/2
MERRILL        FOG       46  46 100 CALM      30.02S VSB 3/4
$$

WIZ029-030-035-036-043>047-240400-
CENTRAL WISCONSIN

CITY           SKY/WX    TMP DP  RH WIND       PRES   REMARKS
WAUSAU         FOG       46  46 100 SW3       30.02S VSB 1/2
MOSINEE        FOG       45  45 100 S3        30.03F VSB 1/4
MARSHFIELD     FOG       47  46  97 SW5       30.03S VSB 1/4
STEVENS POINT  CLOUDY    45  45 100 CALM      30.03F FOG
WAUPACA        CLOUDY    48  47  97 CALM      30.04F FOG
WAUTOMA        CLOUDY    46  46 100 CALM      30.05F FOG
WISC RAPIDS    CLOUDY    47  46  97 CALM      30.04F FOG
CAMP DOUGLAS   NOT AVBL
$$

WIZ011>013-019>022-031-037>040-048>050-240400-
NORTHEAST WISCONSIN

CITY           SKY/WX    TMP DP  RH WIND       PRES   REMARKS
ANTIGO         FOG       44  44 100 CALM      30.02F VSB 1/4
SHAWANO        CLOUDY    49  47  94 CALM      30.04F FOG
OCONTO         CLOUDY    47  47 100 CALM      30.04F
STURGEON BAY   CLOUDY    48  45  87 S7        30.05F
GREEN BAY      CLOUDY    49  48  97 CALM      30.04F FOG
MANITOWOC      NOT AVBL
APPLETON       CLOUDY    48  46  93 CALM      30.04F FOG
CLINTONVILLE   CLOUDY    46  45  93 CALM      30.04F FOG
OSHKOSH        CLOUDY    50  48  93 CALM      30.04S FOG
$$

WIZ032>034-041-042-053>061-240400-
SOUTHWEST WISCONSIN

CITY           SKY/WX    TMP DP  RH WIND       PRES   REMARKS
LA CROSSE      CLOUDY    50  49  96 SE5       30.03F FOG
SPARTA         FOG       47  47  99 CALM      30.05S VSB 1
VIROQUA        CLOUDY    47  47 100 CALM      30.05S VSB 1/4
BOSCOBEL       FOG       50  48  93 CALM      30.06S VSB 1/4
PRAIRIE DU CHI CLOUDY    49  48  95 CALM      30.05S FOG
PLATTEVILLE    CLOUDY    50  49  97 SW3       30.07S
$$

WIZ056-057-062-063-064-067-068-240400-
SOUTH CENTRAL WISCONSIN

CITY           SKY/WX    TMP DP  RH WIND       PRES   REMARKS
REEDSBURG      CLOUDY    47  47 100 SW3       30.05S FOG
BARABOO/DELLS  FOG       47  46  95 SW3       30.04F VSB 1
LONE ROCK      FOG       52  48  86 CALM      30.05F VSB 1/4
MINERAL POINT  FOG       50  48  93 CALM      30.05F VSB 1/4
MADISON        CLOUDY    52  49  89 CALM      30.05S
MIDDLETON      CLOUDY    52  51  97 SW3       30.05S
WATERTOWN      CLOUDY    50  50 100 S5        30.05S
MONROE         CLOUDY    50  50 100 SW3       30.06R
JANESVILLE     CLOUDY    52  48  87 CALM      30.05F
$$

WIZ051-052-058>065-066-070>072-240400-
SOUTHEAST WISCONSIN

CITY           SKY/WX    TMP DP  RH WIND       PRES   REMARKS
MILWAUKEE      CLOUDY    51  47  86 S5        30.07F
WAUKESHA       CLOUDY    48  46  93 S5        30.07F
MILWAUKEE/TIMM CLOUDY    50  45  81 S6        30.06F
RACINE         CLOUDY    51  48  89 CALM      30.08F
BURLINGTON     CLOUDY    48  47  97 CALM      30.07S
KENOSHA        CLOUDY    50  49  96 CALM      30.07S FOG
FOND DU LAC    CLOUDY    51  48  89 SW6       30.05R
SHEBOYGAN      CLOUDY    50  48  93 S5        30.05S
WEST BEND      CLOUDY    50  45  81 CALM      30.05F
JUNEAU         CLOUDY    50  48  93 S6        30.06S
$$

LSZ147-162-240400-
LAKE SUPERIOR

STATION/POSITION TIME  TEMP    WIND        PRES    WAVE
                       AIR SEA DIR/SP/G            HT/PER
                 (UTC) (F)     (DEG/KT/KT) (MB)    (FT/S)
W MID LAKE BUOY  0150   48 46  200/  4/  4 1014.9R   1
DEVILS ISLAND    0200   52     180/  6/  7 1014.7F
PORT WING        0200   51     160/  6/  9 1014.2
SAXON HARBOR     0200   48        CALM     1014.9
$$

LMZ867-665-643>646-240400-
LAKE MICHIGAN

STATION/POSITION TIME  TEMP    WIND        PRES    WAVE
                       AIR SEA DIR/SP/G            HT/PER
                 (UTC) (F)     (DEG/KT/KT) (MB)    (FT/S)
CHAMBERS ISLAND  0200   50     190/  5/ 10 1017.6
N MID LAKE BUOY  0150   51 51  200/ 17/ 19 1017.6R   4/ 5
NORTHPORT PIER   0200   50     180/  2/  7 1017.6R
SISTER BAY       0228          180/  7/  8   N/A
ALGOMA LAKESHORE 0141          220/ 11/ 12   N/A
KEWAUNEE LAKESHO 0200   50     180/  7/  8 1016.6F
SHEBOYGAN LAKESH 0200   51 51  180/ 12/ 12 1018.1F
PORT WASHINGTON  0240   52     210/  2/  4 1018.3F
ATWATER BUOY     0200   53     180/ 10/ 12 1019.2R
MILWAUKEE LAKESH 0200   53     200/  8/  9   N/A
S MID LAKE BUOY  0150   55 54  190/ 10/ 12 1019.1R   2/ 4
KENOSHA   LAKESH 0200   52     280/  2/  3 1018.3F
$$

TC  - TEMPERATURE IN CELSIUS
VSB - VISIBILITY IN STATUTE MILES
WCI - WIND CHILL INDEX
HX  - HEAT INDEX




USA.gov is the U.S. government's official web portal to all federal, state and local government web resources and services.